Miscellaneous Local Product
Issued by NWS North Platte, NE

Home | Current Version | Previous Version | Graphics & Text | Print | Product List | Glossary On
Versions: 1 2 3 4 5 6 7 8 9 10 11 12 13 14 15 16 17 18 19 20 21 22 23 24 25 26 27 28 29 30 31 32 33 34 35 36 37 38 39 40 41 42 43 44 45 46 47 48 49 50
000
AXUS43 KLBF 211210
MISLBF


WESTERN AND NORTH CENTRAL NEBRASKA HOURLY WEATHER ROUNDUP
NATIONAL WEATHER SERVICE NORTH PLATTE NE
700 AM CDT SAT APR 21 2018

NOTE: "FAIR" INDICATES FEW OR NO CLOUDS BELOW 12,000 FEET WITH NO
SIGNIFICANT WEATHER AND/OR OBSTRUCTIONS TO VISIBILITY.

NOTE: STATIONS NOT REPORTING VARIABLES SUCH AS SKY/WEATHER OR
PRESSURE ARE PROVIDED BY RAWS AND APRS NETWORKS AND ARE NOT UNDER
NATIONAL WEATHER SERVICE QUALITY CONTROL.

...OBSERVATIONS IN AND NEAR THE EASTERN PANHANDLE OF NEBRASKA...

CITY           SKY/WX    TMP DP  RH WIND       PRES   REMARKS
PINE RIDGE     CLOUDY    39  36  89 SE8       30.22S WCI  33
GORDON         CLOUDY    38  36  93 SE5       30.22S WCI  34
CHADRON        CLOUDY    37  35  92 CALM      30.21S
ALLIANCE       LGT SNOW  33  33 100 SE8       30.20R FOG     WCI  26
SIDNEY         LGT SNOW  33  33 100 E7        30.18R FOG     WCI  27
CRESCENT LAKE    N/A     50  31  49 E3          N/A
$$

...OBSERVATIONS IN NORTHERN NEBRASKA AND FAR SOUTHERN SOUTH DAKOTA...

CITY           SKY/WX    TMP DP  RH WIND       PRES   REMARKS
WINNER         CLOUDY    39  35  86 SE5       30.30R
VALENTINE      CLOUDY    41  38  89 S6        30.27S
AINSWORTH      LGT RAIN  38  38  97 S6        30.29R WCI  34
O`NEILL        CLOUDY    43  39  87 CALM      30.30R
THEDFORD       DRIZZLE   38  37  96 SE3       30.26S
BROKEN BOW     LGT RAIN  40  37  89 NE6       30.24F
ORD            CLOUDY    40  39  97 N6        30.26S FOG
ALBION         CLOUDY    42  38  87 NW5       30.28R
VALENTINE NWR    N/A     37  36  96 SE5         N/A  WCI  33
HALSEY           N/A     37  37 100 E3          N/A
BUTTE            N/A     37  35  93 NE3         N/A
CHAMBERS         N/A     40  37  90 CALM        N/A
EWING            N/A     41  37  86 CALM        N/A
$$

...OBSERVATIONS IN SOUTHWEST NEBRASKA AND FAR NORTHEAST COLORADO...

CITY           SKY/WX    TMP DP  RH WIND       PRES   REMARKS
WRAY           LGT SNOW  34  34 100 E5        30.17S WCI  30
HOLYOKE        RAIN      37  36  93 E13       30.18S WCI  29
IMPERIAL       LGT RAIN  38  38 100 E9        30.19R WCI  31
OGALLALA       LGT RAIN  37  36  94 E8        30.21S WCI  31
NORTH PLATTE   LGT RAIN  39  37  92 SE10      30.23S WCI  32
MCCOOK         CLOUDY    40  39  97 E8        30.20R WCI  34
LEXINGTON      DRIZZLE   40  39  93 NE7       30.22S
STAPLETON        N/A     36  35  95 CALM        N/A
GOTHENBURG       N/A     39  37  94 E7          N/A  WCI  34
CALLAWAY         N/A     39  37  94 E7          N/A  WCI  34
$$

...OBSERVATIONS IN CENTRAL LINCOLN COUNTY AREA...

CITY           SKY/WX    TMP DP  RH WIND       PRES   REMARKS
N.P. AIRPORT   LGT RAIN  39  37  92 SE10      30.23S WCI  32
N.P. DOWNTOWN    N/A     38  37  95 E3          N/A
N.P. SOUTHEAST   N/A     38  36  93 E3          N/A
N.P. HILLCREST   N/A     38  37  95 E10         N/A  WCI  31
$$

...OBSERVATIONS ACROSS THE ROCKIES AND WESTERN HIGH PLAINS...

CITY           SKY/WX    TMP DP  RH WIND       PRES   REMARKS
RAPID CITY     CLOUDY    38  37  97 SE10      30.21R FOG     WCI  31
SCOTTSBLUFF    LGT SNOW  34  32  92 E6        30.20S WCI  29
CHEYENNE       LGT SNOW  30  30 100 CALM      30.13S FOG
DENVER         LGT SNOW  32  32 100 N10       30.12R VSB 3/4 WCI  24
BERTHOUD PASS  CLOUDY    16   5  62 N9G18     30.08S WCI   4
MONARCH PASS   CLOUDY    18  16  93 NW3       30.19R
ASPEN          CLOUDY    30  29  96 SW6       30.09F WCI  24
STEAMBOAT      CLOUDY    32  32 100 CALM      30.12R
LARAMIE        FOG       24  24 100 SW3       30.09F VSB 1/2
CASPER         FOG       35  35 100 W5        30.15S VSB 1   WCI  31
$$

...OBSERVATIONS ACROSS THE NORTHERN PLAINS...

CITY           SKY/WX    TMP DP  RH WIND       PRES   REMARKS
BISMARCK       CLEAR     37  35  92 S5        30.27S WCI  33
FARGO          FAIR      34  32  92 S8        30.37R WCI  27
PIERRE         MOCLDY    39  39 100 SE7       30.29S FOG     WCI  34
SIOUX FALLS    CLOUDY    38  29  70 CALM      30.35R
$$

...OBSERVATIONS ACROSS THE CENTRAL AND SOUTHERN PLAINS...

CITY           SKY/WX    TMP DP  RH WIND       PRES   REMARKS
OMAHA          CLOUDY    50  26  39 VRB5      30.28F
GRAND ISLAND   CLOUDY    42  39  89 N9        30.25R
KANSAS CITY    CLOUDY    48  26  42 E10       30.25S
WICHITA        RAIN      47  45  93 E13       30.11F
DODGE CITY     LGT RAIN  43  41  93 E8        30.09R
OKLAHOMA CITY  TSTM      48  47  96 E14       30.06S FOG
DALLAS         MOCLDY    55  47  74 SE13      29.98F
AMARILLO       CLOUDY    46  45  96 E14       29.95R FOG
$$




USA.gov is the U.S. government's official web portal to all federal, state and local government web resources and services.